Location: Cieszkowy
(50.3290°N, 20.5336°E)
Time: 23:36:52
(UTC+00:00)

Cosmos 2227 Rocket - Pass Details

Date: 15 June 2024
Orbit: 839 x 844 km, 71.0° (Epoch: 18 July)

Event Time Altitude Azimuth Distance (km) Brightness Sun altitude
Exits shadow 00:04:59 14° 233° (SW) 2,161 3.8 -13.9°
Maximum altitude 00:09:38 51° 306° (NW) 1,061 2.8 -13.6°
Drops below altitude 10° 00:15:10 10° 22° (NNE) 2,475 6.1 -13.3°
Sets 00:17:42 0° 28° (NNE) 3,413 7.4 -13.1°
